Weather History for Bishop, CA

Change the Weather History Date:

Tuesday, August 13, 2013

  Actual Average Record
Temperature  
Mean Temperature 73 °F 76 °F  
Max Temperature 97 °F 97 °F 106 °F (2002)
Min Temperature 49 °F 54 °F 45 °F (1954)
Degree Days  
Heating Degree Days 0 0  
Month to date heating degree days 0 0  
Since 1 June heating degree days 0 20  
Since 1 July heating degree days 0 1  
Cooling Degree Days 8 11  
Month to date cooling degree days 102 150  
Year to date cooling degree days 973 814  
Since 1 June cooling degree days 887 746  
Growing Degree Days 24 (Base 50)    
Moisture  
Dew Point 21 °F    
Average Humidity 20    
Maximum Humidity 35    
Minimum Humidity 5    
Precipitation  
Precipitation 0.00 in 0.00 in 0.14 in (1968)
Month to date precipitation 0.00 0.05  
Year to date precipitation 0.95 3.29  
Snow  
Snow 0.00 in 0.00 in - ()
Month to date snowfall 0.0 0.0  
Since 1 June snowfall 0.0 0.0  
Since 1 July snowfall 0.0 0.0  
Snow Depth 0.00 in    
Sea Level Pressure  
Sea Level Pressure 29.90 in    
Wind  
Wind Speed 7 mph (SSE)    
Max Wind Speed 21 mph    
Max Gust Speed 28 mph    
Visibility 10 miles    
Events      
T = Trace of Precipitation, MM = Missing Value Source: NWS Daily Summary

Daily Weather History Graph

Daily Weather History Graph

Search for Another Location

Airport:

Trip Planner

Search our weather history database for the weather conditions in past years. The results will help you decide how hot, cold, wet, or windy it might be!

Date:

Astronomy

Aug. 13, 2013 Rise Set
Actual Time 6:08 AM PDT 7:47 PM PDT
Civil Twilight 5:40 AM PDT 8:15 PM PDT
Nautical Twilight 5:06 AM PDT 8:48 PM PDT
Astronomical Twilight 4:30 AM PDT 9:24 PM PDT
Moon 12:58 PM PDT (8/13) 11:36 PM PDT (8/13)
Length of Visible Light 14h 35m
Length of Day
13h 39m
Waxing Crescent, 43% of the Moon is Illuminated
Aug 13
Waxing Crescent
Aug 14
First Quarter
Aug 20
Full
Aug 28
Last Quarter
Sep 5
New

Hourly Weather History & Observations

Time (PDT) Temp. Dew Point Humidity Pressure Visibility Wind Dir Wind Speed Gust Speed Precip Events Conditions
12:56 AM 61.0 °F 24.1 °F 24% 29.92 in 10.0 mi East 3.5 mph - N/A   Clear
1:56 AM 59.0 °F 25.0 °F 27% 29.92 in 10.0 mi North 3.5 mph - N/A   Clear
2:56 AM 54.0 °F 25.0 °F 33% 29.94 in 10.0 mi North 4.6 mph - N/A   Clear
3:56 AM 53.1 °F 26.1 °F 35% 29.94 in 10.0 mi NW 5.8 mph - N/A   Clear
4:56 AM 54.0 °F 26.1 °F 34% 29.95 in 10.0 mi NW 8.1 mph - N/A   Clear
5:56 AM 51.1 °F 24.1 °F 35% 29.96 in 10.0 mi NNW 6.9 mph - N/A   Clear
6:56 AM 53.1 °F 26.1 °F 35% 29.98 in 10.0 mi NNW 4.6 mph - N/A   Clear
7:56 AM 64.9 °F 25.0 °F 22% 29.99 in 10.0 mi NNW 3.5 mph - N/A   Clear
8:56 AM 75.0 °F 19.0 °F 12% 29.97 in 10.0 mi NNW 4.6 mph - N/A   Clear
9:56 AM 82.9 °F 19.9 °F 10% 29.96 in 10.0 mi NNW 4.6 mph - N/A   Clear
10:56 AM 87.1 °F 17.1 °F 8% 29.94 in 10.0 mi Calm Calm - N/A   Clear
11:56 AM 90.0 °F 21.0 °F 8% 29.92 in 10.0 mi Variable 5.8 mph - N/A   Clear
12:56 PM 93.9 °F 17.1 °F 6% 29.90 in 10.0 mi South 12.7 mph 23.0 mph N/A   Clear
1:56 PM 95.0 °F 18.0 °F 6% 29.88 in 10.0 mi South 13.8 mph 25.3 mph N/A   Clear
2:56 PM 96.1 °F 17.1 °F 6% 29.86 in 10.0 mi South 11.5 mph 23.0 mph N/A   Clear
3:56 PM 97.0 °F 16.0 °F 5% 29.84 in 10.0 mi South 16.1 mph 20.7 mph N/A   Clear
4:56 PM 96.1 °F 15.1 °F 5% 29.83 in 10.0 mi SSE 8.1 mph 19.6 mph N/A   Clear
5:56 PM 95.0 °F 16.0 °F 6% 29.83 in 10.0 mi South 5.8 mph 16.1 mph N/A   Clear
6:56 PM 91.9 °F 19.0 °F 7% 29.83 in 10.0 mi SSE 11.5 mph - N/A   Clear
7:56 PM 84.9 °F 23.0 °F 10% 29.83 in 10.0 mi SSE 8.1 mph - N/A   Clear
8:56 PM 79.0 °F 21.0 °F 12% 29.85 in 10.0 mi SE 9.2 mph - N/A   Clear
9:56 PM 79.0 °F 21.0 °F 12% 29.86 in 10.0 mi South 10.4 mph - N/A   Clear
10:56 PM 73.9 °F 21.0 °F 14% 29.88 in 10.0 mi SE 5.8 mph - N/A   Clear
11:56 PM 72.0 °F 23.0 °F 16% 29.88 in 10.0 mi SE 4.6 mph - N/A   Clear